[[{"header":{"parameterUnit":"m.s-1","parameterCategory":1,"la1":30.2991,"la2":30.254,"lo1":-89.0895,"lo2":-89.0444,"dy":0.0017,"dx":0.0017,"nx":28,"ny":28,"refTime":"2024-03-07T03:00:00:Z","depth":0,"parameterNumber":2,"parameterNumberName":"U-component_of_WINDS"},"data":[0,0,0,0,0,0,0,0,0,0,0,0,0,0,0,0,0,0,0,0,0,0,0,0,0,0,0,0,0,0,0,0,0,0,0,0,0,0,0,0,0,0,0,0,0,0,0,0,0,0,0,0,0,0,0,0,0,0,-5.7961,-5.7962,0,-5.8126,-5.8128,-5.813,-5.8161,-5.8159,-5.8158,-5.8157,-5.8323,-5.8329,-5.8334,0,0,0,0,0,0,0,0,0,0,0,0,0,-5.7667,-5.7672,-5.796,-5.7962,-5.7965,-5.8126,-5.8128,-5.8131,-5.8161,-5.8159,-5.8158,-5.8156,-5.8321,-5.8328,-5.8335,0,0,0,0,0,0,0,0,0,0,0,0,0,-5.781,-5.7674,-5.796,-5.7999,-5.8004,-5.8126,-5.8128,-5.8131,-5.8161,-5.8159,-5.8157,-5.8156,-5.8319,-5.8327,-5.8336,-5.8428,0,0,-5.8362,-5.8365,0,0,0,0,0,0,0,0,-5.7802,-5.782,-5.7991,-5.7997,-5.8003,-5.8121,-5.8086,-5.8231,-5.8162,-5.8102,-5.8157,-5.8155,-5.8257,-5.8271,-5.8306,-5.8436,-5.8443,-5.8362,-5.8367,-5.8371,-5.8373,0,0,0,0,0,0,0,-5.7792,-5.7814,-5.8026,-5.7994,-5.8001,-5.8008,-5.8026,-5.8114,-5.8188,-5.8107,-5.8109,-5.8129,-5.826,-5.8298,-5.831,-5.8445,-5.8362,-5.837,-5.8375,-5.8378,-5.866,-5.8662,0,0,0,0,0,0,-5.7775,-5.7805,-5.8021,-5.8031,-5.7895,-5.8015,-5.8035,-5.8085,-5.8188,-5.8201,-5.813,-5.813,-5.8284,-5.83,-5.8316,-5.843,-5.8371,-5.8379,-5.8384,-5.8658,-5.866,-5.8663,0,0,0,0,0,0,-5.7769,-5.7794,-5.8014,-5.7919,-5.7947,-5.8022,-5.8078,-5.8089,-5.8127,-5.8206,-5.8219,-5.8155,-5.8283,-5.8304,-5.84,-5.8436,-5.8383,-5.8391,-5.8655,-5.8658,-5.8662,-5.866,0,0,0,0,0,0,-5.776,-5.7792,-5.7828,-5.792,-5.7952,-5.8096,-5.808,-5.8094,-5.8142,-5.8143,-5.8233,-5.8245,-5.8283,-5.8387,-5.8409,-5.8447,-5.8397,-5.8652,-5.8656,-5.8661,-5.8657,-5.8663,-5.8668,0,0,0,0,0,-5.775,-5.782,-5.783,-5.7855,-5.7999,-5.8098,-5.8117,-5.816,-5.8145,-5.8182,-5.8232,-5.8243,-5.843,-5.8397,-5.8421,-5.8463,-5.865,-5.8655,-5.866,-5.8654,-5.8662,-5.8668,0,0,0,0,0,0,-5.7729,-5.7832,-5.7844,-5.7947,-5.8013,-5.8103,-5.815,-5.8166,-5.8237,-5.8235,-5.8285,-5.8305,-5.8398,-5.8441,-5.8402,-5.8558,-5.8539,-5.8549,-5.8526,-5.8534,-5.8539,-5.8525,-5.8404,0,0,0,0,0,-5.7736,-5.7809,-5.7895,-5.7977,-5.801,-5.8075,-5.8119,-5.8147,-5.8218,-5.8246,-5.8303,-5.837,-5.8445,-5.8492,-5.8565,-5.8665,-5.8684,-5.8706,-5.8711,-5.8715,-5.8722,-5.8778,-5.8788,-5.8681,-5.8681,-5.868,0,0,-5.7752,-5.7818,-5.786,-5.7975,-5.803,-5.8102,-5.8098,-5.8175,-5.8229,-5.8257,-5.8351,-5.8396,-5.8475,-5.8573,-5.8619,-5.8611,-5.8757,-5.8722,-5.8725,-5.873,-5.8785,-5.8795,-5.8804,-5.8684,-5.8684,-5.8683,0,0,-5.7817,-5.7875,-5.7949,-5.8005,-5.8089,-5.8132,-5.815,-5.8238,-5.8269,-5.8365,-5.8388,-5.8453,-5.858,-5.8635,-5.8679,-5.8768,-5.878,-5.8791,-5.8818,-5.8872,-5.888,-5.8888,-5.8918,-5.8928,-5.8799,-5.8799,-5.8799,0,-5.7824,-5.7936,-5.7984,-5.8061,-5.811,-5.8142,-5.8217,-5.8268,-5.8371,-5.8404,-5.8395,-5.8556,-5.8611,-5.8722,-5.8744,-5.878,-5.8801,-5.8779,-5.8875,-5.8884,-5.8891,-5.892,-5.8932,-5.8799,-5.8799,-5.8799,-5.8799,0,-5.7941,-5.8018,-5.8068,-5.8168,-5.8224,-5.8299,-5.8358,-5.8408,-5.8433,-5.8476,-5.8574,-5.8642,-5.8728,-5.8758,-5.8782,-5.8873,-5.8866,-5.8866,-5.8846,-5.8901,-5.8929,-5.8941,-5.88,-5.88,-5.88,-5.88,0,0,-5.7993,-5.8122,-5.8138,-5.8184,-5.8281,-5.8341,-5.8419,-5.8505,-5.8547,-5.8618,-5.8683,-5.8791,-5.8792,-5.8843,-5.8873,-5.8921,-5.8985,-5.8915,-5.8918,-5.8924,-5.9089,-5.9086,-5.9098,-5.8995,-5.8998,-5.9,-5.9081,0,-5.8067,-5.8206,-5.8253,-5.8368,-5.8439,-5.8472,-5.8539,-5.8605,-5.8649,-5.8716,-5.8764,-5.8839,-5.8836,-5.8866,-5.8915,-5.8967,-5.9018,-5.8962,-5.9054,-5.9057,-5.903,-5.9113,-5.911,-5.9183,-5.9093,-5.9095,-5.9096,0,-5.8171,-5.8245,-5.8367,-5.8456,-5.8488,-5.8547,-5.8631,-5.8695,-5.8771,-5.88,-5.8858,-5.8886,-5.8967,-5.8946,-5.9058,-5.9019,-5.906,-5.9092,-5.9095,-5.9103,-5.9077,-5.9119,-5.9208,-5.9217,-5.9114,-5.9113,-5.9111,0,-5.8194,-5.8325,-5.8415,-5.8454,-5.856,-5.8601,-5.8647,-5.8721,-5.8771,-5.8844,-5.8876,-5.8958,-5.9002,-5.9064,-5.9113,-5.9094,-5.922,-5.9204,-5.9245,-5.9243,-5.9266,-5.9264,-5.9359,-5.9298,-5.9298,-5.9298,-5.9298,0,-5.827,-5.8343,-5.8426,-5.8481,-5.8564,-5.8618,-5.8698,-5.8746,-5.8813,-5.8877,-5.8911,-5.897,-5.9033,-5.9101,-5.914,-5.9226,-5.9247,-5.9271,-5.928,-5.9266,-5.9262,-5.9291,-5.9286,-5.9301,-5.93,-5.93,-5.9299,0,-5.8307,-5.8367,-5.8467,-5.856,-5.8586,-5.8642,-5.8722,-5.8776,-5.8823,-5.8904,-5.8926,-5.8999,-5.9081,-5.9137,-5.9241,-5.9268,-5.936,-5.937,-5.9334,-5.9338,-5.9375,-5.9369,-5.9489,-5.9507,-5.9436,-5.9437,-5.9438,0,-5.835,-5.8407,-5.8508,-5.8554,-5.8601,-5.8675,-5.8726,-5.8782,-5.8834,-5.8926,-5.8969,-5.9054,-5.9124,-5.9253,-5.9314,-5.9394,-5.9405,-5.9441,-5.9416,-5.9401,-5.9402,-5.9397,-5.9402,-5.9443,-5.9444,-5.9444,-5.9445,0,-5.8419,-5.8446,-5.8519,-5.8603,-5.8664,-5.8732,-5.8801,-5.8837,-5.8905,-5.8962,-5.9046,-5.9101,-5.9209,-5.9292,-5.9378,-5.9425,-5.9446,-5.9453,-5.9466,-5.9451,-5.9427,-5.9438,-5.9341,-5.9449,-5.9448,-5.9448,-5.9448,-5.9448,-5.8459,-5.8511,-5.859,-5.8671,-5.8729,-5.8793,-5.8849,-5.8904,-5.8976,-5.9068,-5.9098,-5.9185,-5.9261,-5.938,-5.9429,-5.9498,-5.9494,-5.9514,-5.9519,-5.9522,-5.952,-5.9419,-5.9514,-5.9514,-5.9514,-5.9514,-5.9514,0,-5.8528,-5.8581,-5.8655,-5.8751,-5.8814,-5.8832,-5.8909,-5.896,-5.9037,-5.9107,-5.9176,-5.9274,-5.9355,-5.9424,-5.9508,-5.955,-5.9562,-5.957,-5.9566,-5.9576,-5.9519,-5.9498,-5.9559,-5.9559,-5.9559,-5.9559,-5.9559,-5.9559,-5.8571,-5.8659,-5.8696,-5.8815,-5.8868,-5.8955,-5.8997,-5.9056,-5.9112,-5.922,-5.9288,-5.9334,-5.9404,-5.9493,-5.9569,-5.9587,-5.9615,-5.9621,-5.9641,-5.9585,-5.958,-5.9575,-5.9555,-5.9627,-5.9627,-5.9691,-5.9692,-5.9692]},{"header":{"parameterUnit":"m.s-1","parameterCategory":1,"la1":30.2991,"la2":30.254,"lo1":-89.0895,"lo2":-89.0444,"dy":0.0017,"dx":0.0017,"nx":28,"ny":28,"refTime":"2024-03-07T03:00:00:Z","depth":0,"parameterNumber":3,"parameterNumberName":"V-component_of_WINDS"},"data":[0,0,0,0,0,0,0,0,0,0,0,0,0,0,0,0,0,0,0,0,0,0,0,0,0,0,0,0,0,0,0,0,0,0,0,0,0,0,0,0,0,0,0,0,0,0,0,0,0,0,0,0,0,0,0,0,0,0,3.864,3.864,0,3.8671,3.8672,3.8672,3.8664,3.8664,3.8663,3.8663,3.8693,3.8694,3.8695,0,0,0,0,0,0,0,0,0,0,0,0,0,3.8573,3.8574,3.864,3.864,3.864,3.8671,3.8672,3.8672,3.8664,3.8664,3.8663,3.8662,3.8692,3.8694,3.8696,0,0,0,0,0,0,0,0,0,0,0,0,0,3.8603,3.8575,3.864,3.864,3.8641,3.8671,3.8672,3.8672,3.8665,3.8664,3.8663,3.8662,3.8692,3.8694,3.8696,3.8727,0,0,3.8702,3.8703,0,0,0,0,0,0,0,0,3.8601,3.8605,3.864,3.864,3.8641,3.8663,3.8659,3.869,3.8665,3.8655,3.8662,3.8661,3.8683,3.8686,3.8694,3.8728,3.8729,3.8702,3.8703,3.8704,3.8705,0,0,0,0,0,0,0,3.8599,3.8604,3.8652,3.864,3.8641,3.8639,3.8643,3.8665,3.8674,3.8656,3.8656,3.866,3.8684,3.8692,3.8695,3.873,3.8702,3.8704,3.8705,3.8706,3.8794,3.8795,0,0,0,0,0,0,3.8597,3.8602,3.8651,3.8653,3.8618,3.8641,3.8645,3.8657,3.8674,3.8676,3.866,3.8659,3.8689,3.8692,3.8696,3.8735,3.8704,3.8706,3.8707,3.8793,3.8795,3.8796,0,0,0,0,0,0,3.8595,3.8601,3.865,3.8628,3.8634,3.8643,3.8657,3.8658,3.8666,3.8677,3.8679,3.8668,3.8688,3.8693,3.872,3.8736,3.8707,3.8709,3.8792,3.8794,3.8795,3.8814,0,0,0,0,0,0,3.8593,3.8601,3.8612,3.8628,3.8635,3.8674,3.8658,3.8659,3.867,3.8669,3.8684,3.8686,3.8688,3.8717,3.8722,3.8739,3.8711,3.8791,3.8793,3.8795,3.8812,3.8816,3.8819,0,0,0,0,0,3.8591,3.8615,3.8613,3.8619,3.865,3.8674,3.8678,3.8681,3.8671,3.8684,3.8691,3.8685,3.8734,3.872,3.8725,3.8743,3.879,3.8792,3.8795,3.881,3.8815,3.8819,0,0,0,0,0,0,3.8599,3.8617,3.8615,3.8644,3.8658,3.8673,3.8688,3.8686,3.8702,3.87,3.8702,3.8706,3.8734,3.8741,3.8725,3.8775,3.876,3.8764,3.877,3.8775,3.8778,3.8777,3.8712,0,0,0,0,0,3.8605,3.8624,3.8638,3.8663,3.867,3.8678,3.8689,3.869,3.8704,3.871,3.8719,3.8732,3.8751,3.8763,3.878,3.8812,3.8817,3.8827,3.8831,3.8834,3.8838,3.8858,3.8864,3.8804,3.8804,3.8804,0,0,3.8616,3.8628,3.8639,3.8665,3.8676,3.8696,3.8683,3.8704,3.8719,3.8713,3.874,3.8747,3.8763,3.8793,3.8807,3.88,3.8855,3.8837,3.884,3.8842,3.8861,3.8867,3.8872,3.8806,3.8805,3.8805,0,0,3.8647,3.8657,3.868,3.8692,3.871,3.8715,3.8721,3.8737,3.8742,3.877,3.8767,3.8785,3.8816,3.8828,3.8838,3.8877,3.8873,3.8883,3.8903,3.8922,3.8927,3.8931,3.8947,3.8953,3.8886,3.8886,3.8886,0,3.8658,3.8688,3.8692,3.8715,3.8727,3.8724,3.8749,3.8759,3.8781,3.879,3.8782,3.8823,3.8833,3.8868,3.8878,3.8885,3.8893,3.8881,3.8926,3.893,3.8934,3.895,3.8956,3.8887,3.8887,3.8887,3.8887,0,3.8703,3.8724,3.8741,3.8765,3.8778,3.8802,3.881,3.8823,3.8824,3.8831,3.8861,3.8873,3.8894,3.8902,3.8902,3.8938,3.8933,3.8926,3.8911,3.8941,3.8956,3.8962,3.8889,3.8888,3.8888,3.8888,0,0,3.8738,3.8766,3.8772,3.8784,3.8804,3.8821,3.8845,3.8867,3.888,3.8896,3.8917,3.8945,3.8939,3.8951,3.8952,3.897,3.9003,3.896,3.8961,3.8969,3.9046,3.9053,3.906,3.9001,3.9002,3.9002,3.9046,0,3.8772,3.8816,3.8821,3.886,3.8881,3.888,3.8901,3.8916,3.8924,3.8943,3.8951,3.8972,3.8962,3.8969,3.8986,3.8995,3.9019,3.8992,3.9021,3.9022,3.9019,3.9067,3.9074,3.9114,3.9051,3.9052,3.9053,0,3.8817,3.8837,3.8878,3.8899,3.8908,3.8927,3.895,3.8968,3.8986,3.8991,3.9005,3.9006,3.9032,3.9015,3.9052,3.9034,3.9046,3.9053,3.9055,3.9058,3.904,3.9074,3.9126,3.9133,3.9061,3.9061,3.906,0,3.8842,3.8878,3.8909,3.8919,3.8943,3.8957,3.8967,3.8985,3.8999,3.9018,3.9028,3.9049,3.9062,3.9079,3.9085,3.9072,3.9122,3.9106,3.9128,3.9128,3.9139,3.9138,3.9196,3.9144,3.9144,3.9144,3.9144,0,3.888,3.8906,3.8921,3.8939,3.8969,3.8976,3.9005,3.9015,3.9031,3.9052,3.9051,3.9071,3.9078,3.9099,3.9104,3.9135,3.914,3.9145,3.9147,3.9146,3.9146,3.9155,3.9153,3.9146,3.9145,3.9145,3.9145,0,3.8913,3.8923,3.8957,3.8978,3.8984,3.9005,3.9024,3.9042,3.9051,3.9078,3.9084,3.9098,3.9123,3.9131,3.9161,3.9165,3.9202,3.9199,3.9196,3.9197,3.9219,3.9218,3.9286,3.9296,3.9236,3.9236,3.9237,0,3.8937,3.8957,3.8982,3.8997,3.9009,3.9032,3.9048,3.9055,3.9071,3.9095,3.9112,3.9137,3.9158,3.9199,3.9211,3.9235,3.9234,3.9257,3.9238,3.9238,3.9237,3.9237,3.924,3.926,3.9261,3.9261,3.9262,0,3.898,3.8985,3.9008,3.9033,3.9052,3.9072,3.9091,3.9103,3.9114,3.9132,3.9159,3.9176,3.9208,3.9234,3.9259,3.927,3.9268,3.9268,3.9275,3.9275,3.9273,3.9277,3.9208,3.9266,3.9266,3.9266,3.9265,3.9265,3.901,3.903,3.9051,3.9077,3.9093,3.9112,3.9132,3.9144,3.9167,3.9195,3.9198,3.9228,3.9248,3.9281,3.9294,3.9317,3.9311,3.932,3.9322,3.9325,3.9328,3.9269,3.9321,3.9321,3.9321,3.9321,3.9321,0,3.9056,3.907,3.9094,3.9123,3.9144,3.9142,3.9164,3.9181,3.9208,3.9227,3.9249,3.9281,3.9307,3.9323,3.9349,3.9365,3.9365,3.9372,3.9371,3.9375,3.9331,3.9324,3.9371,3.9371,3.9371,3.9371,3.9371,3.9371,3.9082,3.9115,3.9124,3.9166,3.918,3.921,3.9223,3.9241,3.9257,3.9294,3.9316,3.9327,3.9345,3.9373,3.9397,3.9401,3.9412,3.9419,3.9423,3.9382,3.9377,3.9372,3.9365,3.9421,3.9421,3.9465,3.9465,3.9465]}]]